Sioux City, IA

11:13 AM CDT on May 22, 2017 (GMT -0500)
Sioux Gateway

Weather History for KSUX - March, 2013

Change the Weather History Date:

Wednesday, March 20, 2013

  Actual Average Record
Temperature  
Mean Temperature 22 °F 38 °F  
Max Temperature 32 °F 50 °F 79 °F (2015)
Min Temperature 12 °F 27 °F 3 °F (1951)
Degree Days  
Heating Degree Days 43 27  
Month to date heating degree days 714 619  
Since 1 July heating degree days 5863 5913  
Cooling Degree Days 0 0  
Month to date cooling degree days 0 0  
Year to date cooling degree days 0 0  
Moisture  
Dew Point 8 °F    
Average Humidity 55    
Maximum Humidity 73    
Minimum Humidity 36    
Precipitation  
Precipitation 0.00 in 0.07 in 1.39 in (1912)
Month to date precipitation 1.55 1.12  
Year to date precipitation 2.75 2.41  
Snow  
Snow 0.00 in 0.20 in 12.00 in (1912)
Month to date snowfall 10.0 4.6  
Since 1 July snowfall 30.8 31.1  
Snow Depth 0.00 in    
Sea Level Pressure  
Sea Level Pressure 30.35 in    
Wind  
Wind Speed 14 mph (NNW)    
Max Wind Speed 25 mph    
Max Gust Speed 31 mph    
Visibility 10 miles    
Events      
T = Trace of Precipitation, MM = Missing Value Source: NWS Daily Summary

Daily Weather History Graph

Daily Weather History Graph

Search for Another Location

Airport or City:

Trip Planner

Search our weather history database for the weather conditions in past years. The results will help you decide how hot, cold, wet, or windy it might be!

Date:

Astronomy

Mar. 20, 2013 Rise Set
Actual Time 7:28 AM CDT 7:38 PM CDT
Civil Twilight 7:00 AM CDT 8:06 PM CDT
Nautical Twilight 6:27 AM CDT 8:39 PM CDT
Astronomical Twilight 5:53 AM CDT 9:12 PM CDT
Moon 1:07 PM CDT (3/20) 3:15 AM CDT (3/20)
Length of Visible Light 13h 05m
Length of Day
12h 09m
First Quarter, 59% of the Moon is Illuminated
Mar 20
First Quarter
Mar 27
Full
Apr 2
Last Quarter
Apr 10
New
Apr 18
First Quarter

Hourly Weather History & Observations

Time (CDT) Temp. Windchill Dew Point Humidity Pressure Visibility Wind Dir Wind Speed Gust Speed Precip Events Conditions
12:52 AM 19.0 °F 3.6 °F 9.0 °F 65% 30.42 in 10.0 mi NNW 18.4 mph - N/A   Clear
1:22 AM 19.4 °F 6.0 °F 10.4 °F 68% 30.36 in 10.0 mi NNW 13.8 mph - N/A   Mostly Cloudy
1:52 AM 18.0 °F 0.2 °F 8.1 °F 65% 30.41 in 10.0 mi NNW 24.2 mph 31.1 mph N/A   Scattered Clouds
2:52 AM 16.0 °F -2.8 °F 6.1 °F 65% 30.43 in 10.0 mi NNW 25.3 mph 31.1 mph N/A   Clear
3:52 AM 15.1 °F -3.3 °F 5.0 °F 64% 30.42 in 10.0 mi NNW 23.0 mph 28.8 mph N/A   Clear
4:52 AM 14.0 °F -3.4 °F 5.0 °F 67% 30.43 in 10.0 mi NW 19.6 mph 25.3 mph N/A   Clear
5:52 AM 12.9 °F -2.8 °F 5.0 °F 71% 30.44 in 10.0 mi NW 15.0 mph 24.2 mph N/A   Clear
6:52 AM 12.9 °F -3.9 °F 5.0 °F 71% 30.45 in 10.0 mi NW 17.3 mph - N/A   Clear
7:52 AM 12.9 °F -2.8 °F 5.0 °F 71% 30.45 in 10.0 mi NW 15.0 mph - N/A   Clear
8:52 AM 15.1 °F -0.6 °F 6.1 °F 68% 30.45 in 10.0 mi NW 16.1 mph - N/A   Clear
9:52 AM 17.1 °F 2.0 °F 5.0 °F 59% 30.44 in 10.0 mi NNW 16.1 mph - N/A   Clear
10:52 AM 19.9 °F 6.7 °F 6.1 °F 55% 30.44 in 10.0 mi NNW 13.8 mph 18.4 mph N/A   Clear
11:52 AM 21.9 °F 8.2 °F 7.0 °F 53% 30.42 in 10.0 mi NW 16.1 mph 24.2 mph N/A   Clear
12:52 PM 24.1 °F 11.5 °F 8.1 °F 51% 30.38 in 10.0 mi WNW 15.0 mph 24.2 mph N/A   Clear
1:52 PM 27.0 °F 14.7 °F 10.0 °F 49% 30.36 in 10.0 mi WNW 16.1 mph 24.2 mph N/A   Clear
2:52 PM 28.9 °F 17.7 °F 10.0 °F 45% 30.31 in 10.0 mi NW 15.0 mph 20.7 mph N/A   Clear
3:52 PM 30.0 °F 23.2 °F 9.0 °F 41% 30.28 in 10.0 mi NNW 6.9 mph 21.9 mph N/A   Clear
4:52 PM 30.9 °F 21.7 °F 10.0 °F 42% 30.24 in 10.0 mi NNW 11.5 mph - N/A   Clear
5:52 PM 32.0 °F 22.5 °F 9.0 °F 38% 30.23 in 10.0 mi NNW 12.7 mph - N/A   Clear
6:52 PM 30.0 °F 21.7 °F 10.9 °F 45% 30.22 in 10.0 mi NNW 9.2 mph - N/A   Clear
7:52 PM 26.1 °F 17.6 °F 10.9 °F 53% 30.21 in 10.0 mi North 8.1 mph - N/A   Clear
8:52 PM 25.0 °F 18.1 °F 9.0 °F 51% 30.20 in 10.0 mi NNE 5.8 mph - N/A   Clear
9:52 PM 24.1 °F 18.2 °F 10.0 °F 55% 30.20 in 10.0 mi NNE 4.6 mph - N/A   Clear
10:52 PM 21.9 °F 12.5 °F 10.0 °F 60% 30.19 in 10.0 mi NE 8.1 mph - N/A   Clear
11:52 PM 19.9 °F 12.1 °F 12.0 °F 71% 30.19 in 10.0 mi ENE 5.8 mph - N/A   Clear